Dewpoint
19 21 21 21 21 19 14 13 12 9 10 13 17 19 21 22 23 21 21 21 23 24 25 27 24 24 25 26 26 26 26 26 28 27 26 28 30 31 31 32 32 32 33 33
23 25 23 21 21 21 20 18 17 17 16 18 20 22 22 20 20 20 20 21 23 23 23 26 23 24 26 26 26 26 26 26 26 25 26 27 28 30 30 30 32 31 32 32
15 22 22 12 16 22 21 21 17 12 14 19 19 22 23 18 18 19 20 21 23 23 25 23 23 25 26 26 26 26 26 26 24 24 25 25 26 28 30 30 30 31 31 31
15 17 -15 10 20 22 21 21 20 18 20 21 22 23 25 21 20 20 21 23 24 23 24 23 24 26 26 26 25 26 25 24 23 23 23 24 26 28 29 31 31 31 31 31
11 11 9 14 22 21 19 15 18 19 19 21 24 22 21 21 19 21 24 24 23 24 23 25 25 26 25 25 25 24 24 23 22 22 23 24 26 28 29 30 30 31 31 31
16 9 -3 7 18 24 23 13 19 22 19 20 22 17 17 20 22 25 23 21 21 22 24 23 26 26 25 25 24 24 24 22 21 22 23 24 26 28 28 29 29 31 30 31
15 15 14 15 18 25 10 6 12 20 22 24 20 20 22 22 25 23 21 22 23 23 23 25 25 25 23 23 26 25 23 22 21 22 23 25 27 27 27 27 29 29 28 29
16 14 7 18 24 13 16 18 16 19 21 21 24 25 23 24 24 22 20 22 23 23 24 25 26 25 22 22 25 24 23 22 22 23 25 26 26 27 27 26 27 26 25 26
17 15 19 24 20 22 20 17 18 19 20 22 22 21 23 25 25 20 22 23 24 24 25 26 25 25 24 24 25 23 24 23 24 25 26 27 27 26 27 26 26 26 25 25
11 14 16 20 22 21 21 20 20 21 21 22 21 22 25 25 24 19 22 22 23 23 24 25 25 26 25 25 24 24 23 24 25 25 26 26 25 26 26 26 26 26 26 25
15 16 20 20 21 20 21 23 24 22 21 21 23 24 24 24 21 19 23 24 21 24 24 25 25 25 25 24 25 25 24 25 23 24 25 23 23 25 25 26 27 26 27 26
10 17 17 18 22 23 23 22 24 21 22 23 23 24 24 21 20 19 24 24 20 24 25 25 24 24 24 26 27 26 24 22 22 24 23 23 24 24 25 25 26 26 26 27
13 22 22 21 21 23 23 24 22 23 23 23 25 24 22 19 17 23 24 20 21 25 26 25 24 23 25 27 26 25 23 22 24 24 23 23 23 22 22 24 25 26 25 26
21 22 21 23 19 23 24 23 25 24 25 25 24 22 21 16 17 22 21 20 24 27 26 25 24 24 26 26 26 23 23 25 24 24 24 23 22 23 24 23 23 24 25 24
21 23 22 21 22 24 24 24 23 23 24 22 22 21 19 14 14 20 23 23 26 27 25 25 25 25 26 26 25 23 24 24 23 24 23 23 23 23 22 22 22 22 23 23
23 24 24 21 21 23 23 23 22 22 22 21 21 22 19 16 17 23 22 23 25 25 25 25 25 26 27 27 26 25 25 23 22 22 23 22 22 22 21 21 21 21 21 22
23 22 21 20 21 23 22 23 22 22 22 20 20 22 20 19 20 22 22 23 25 27 26 25 25 26 25 27 27 24 23 23 21 20 21 20 21 21 20 20 20 20 20 21
23 23 21 20 21 23 23 23 23 23 22 21 22 22 19 18 15 16 20 23 23 26 25 25 25 25 25 23 22 24 24 22 21 20 19 19 19 20 20 19 19 19 20 20
22 20 21 21 23 24 24 23 23 23 23 22 21 20 19 17 16 17 21 21 20 23 25 25 25 25 25 24 20 23 24 22 21 20 20 18 18 19 18 18 18 18 19 19
22 23 23 24 26 25 23 24 24 23 23 22 21 20 18 16 16 18 22 20 20 23 26 26 24 24 26 25 24 23 23 21 20 20 21 20 18 18 18 17 17 18 18 18
23 25 25 26 25 25 24 24 24 23 23 22 21 21 20 19 18 18 20 20 22 26 26 25 24 23 23 24 22 22 21 19 19 19 20 20 19 17 17 17 17 17 17 17
26 26 25 25 24 23 25 25 24 23 23 23 22 21 21 21 18 18 22 22 25 27 26 25 24 25 25 24 21 20 18 17 17 17 18 18 17 16 16 16 15 15 15 14
27 26 26 25 25 25 26 26 25 24 24 23 23 23 23 24 23 22 23 24 24 26 25 25 25 25 22 23 21 21 20 18 17 17 17 17 16 15 15 14 13 12 11 11
28 28 27 27 27 27 26 28 28 27 26 25 25 24 25 24 24 25 25 23 25 25 26 25 25 24 20 22 21 21 20 19 17 16 15 13 13 14 13 12 11 10 10 9
28 28 28 28 28 28 29 30 30 30 30 30 29 28 26 26 26 27 27 26 25 24 25 22 23 22 22 22 21 21 20 18 16 15 12 11 10 10 10 10 9 9 8 8
28 29 30 30 31 31 31 31 30 31 30 30 31 30 29 27 27 26 26 26 25 25 25 24 22 21 22 21 21 20 18 17 15 12 8 9 9 8 8 8 8 8 7 7
30 30 30 30 30 30 30 30 30 30 30 31 31 31 30 29 28 27 26 26 26 25 24 22 21 20 21 20 19 18 17 15 11 8 8 7 7 7 6 6 6 6 6 6
Wind_Speed
2 3 4 3 5 8 7 4 6 5 10 20 18 13 13 13 14 14 15 15 16 16 15 13 17 19 19 19 22 23 22 24 21 21 22 22 23 24 23 22 23 23 23 20
2 2 1 6 8 8 8 5 12 12 17 13 12 10 12 13 12 13 16 16 16 15 14 14 18 19 19 19 22 21 22 23 20 21 23 25 24 23 23 23 21 22 23 24
3 3 3 4 6 9 5 6 6 9 13 5 13 15 13 13 15 14 16 16 15 12 11 14 17 17 19 19 20 20 21 19 20 22 22 24 25 24 22 24 23 22 21 23
2 1 2 3 5 4 9 9 12 15 17 16 16 15 16 12 12 12 13 13 11 10 11 14 16 18 17 17 18 20 20 17 19 21 24 24 25 24 24 22 23 22 22 22
2 3 6 3 5 7 7 7 9 12 15 14 8 5 15 4 3 6 8 7 6 6 10 13 16 17 18 17 18 19 20 18 18 19 23 24 23 22 21 22 22 22 22 21
3 3 5 5 6 8 6 6 8 10 9 9 2 10 11 5 8 7 6 7 8 9 10 12 14 16 17 18 19 21 20 18 18 20 20 21 22 18 18 19 20 18 20 21
7 6 7 8 10 11 3 3 9 11 10 5 6 9 5 7 6 6 6 6 7 7 8 10 13 16 15 17 18 21 19 18 18 19 19 19 17 16 17 19 17 17 17 19
5 7 8 13 11 9 6 5 8 8 9 9 10 9 4 4 4 4 5 7 7 6 7 9 12 14 15 16 18 20 20 19 19 20 19 17 17 16 17 20 18 19 21 20
14 8 4 25 10 21 9 8 5 5 6 7 4 2 2 3 4 4 5 5 5 5 7 8 12 12 14 17 18 21 22 21 21 21 20 16 17 19 17 19 19 19 19 19
3 9 14 20 18 8 12 15 7 7 6 5 3 3 3 3 2 3 3 4 4 6 8 9 12 10 11 14 16 19 21 22 22 20 18 16 16 16 17 19 19 20 19 21
7 11 3 12 19 20 16 13 9 7 7 6 7 5 5 3 2 2 2 3 4 4 6 9 11 10 11 13 15 17 17 19 19 18 18 18 17 16 17 16 19 19 19 19
13 12 12 6 17 16 15 15 12 12 9 6 7 8 6 3 1 0 1 2 4 4 6 8 9 10 12 13 14 13 14 15 17 17 18 19 17 16 14 17 20 19 22 19
9 7 9 4 5 7 10 10 13 13 11 13 9 9 6 3 2 2 1 2 3 5 5 7 8 10 11 13 12 11 13 16 15 16 18 19 18 19 20 17 17 15 23 23
8 7 6 7 6 11 8 10 13 11 11 12 10 8 6 3 3 3 3 2 3 3 3 5 7 9 11 12 10 12 13 13 11 12 15 16 19 19 17 19 19 19 19 22
14 15 4 2 6 8 9 14 15 15 14 11 8 8 6 5 4 4 3 3 2 2 2 4 6 8 9 10 10 12 14 10 10 10 12 14 15 16 17 17 18 16 17 17
15 15 7 8 8 10 12 13 15 15 13 11 10 9 7 5 4 4 4 3 3 3 2 3 4 6 7 7 9 11 12 12 11 10 11 13 13 15 15 16 16 15 16 19
10 14 11 10 13 15 18 17 16 17 14 12 11 9 8 5 4 6 6 5 4 5 4 3 4 4 5 7 9 10 11 12 13 11 11 13 13 13 13 14 15 15 15 16
13 16 18 15 16 14 12 13 13 14 14 12 10 10 10 9 8 6 5 3 3 4 6 5 5 5 6 6 11 10 10 12 12 12 12 12 13 12 12 13 13 14 14 15
14 15 13 10 12 15 13 15 15 13 11 12 13 14 12 10 9 7 5 4 4 5 4 4 3 5 5 6 10 10 10 12 13 11 11 12 12 12 11 12 12 12 14 15
14 9 8 8 8 12 14 12 13 12 11 12 11 10 11 12 9 8 5 5 6 5 3 3 2 5 6 6 8 8 9 10 10 10 9 12 12 13 12 12 12 11 13 13
15 11 10 12 12 12 15 16 16 14 13 13 15 16 15 9 9 9 6 5 2 4 6 3 2 4 5 5 6 6 6 8 9 9 10 11 12 13 13 12 12 12 13 13
12 12 13 14 15 15 12 11 10 9 10 13 14 12 10 10 9 9 8 6 3 6 5 2 1 2 3 3 3 4 5 7 8 8 9 9 10 12 13 13 14 13 12 13
14 14 14 15 14 11 8 9 11 11 12 13 14 14 16 9 8 8 6 6 8 8 5 3 2 2 1 1 1 2 3 4 6 7 7 8 9 9 11 11 12 13 13 13
13 12 11 8 7 7 9 9 9 9 11 8 11 12 10 9 8 8 5 7 8 10 6 4 3 3 3 1 1 2 1 3 4 5 6 7 7 7 8 9 10 11 12 13
12 12 11 11 10 10 8 5 5 6 6 7 7 7 9 9 9 4 9 9 9 9 5 5 5 4 3 3 2 1 0 1 3 4 6 6 6 7 8 8 9 11 11 12
13 13 13 13 11 8 7 7 7 5 5 5 4 4 5 6 7 7 7 8 10 8 5 5 4 4 3 1 0 1 0 1 2 4 4 5 5 6 7 8 9 9 10 11
9 9 9 7 7 8 8 9 8 7 6 5 4 1 5 7 7 7 9 10 9 7 5 4 4 4 3 2 2 2 2 1 1 2 3 4 4 5 6 7 8 9 10 10
Wind_Direction
89 271 206 225 213 186 213 200 235 281 260 291 297 299 301 300 299 306 317 319 320 322 329 336 343 348 349 347 348 347 349 353 357 353 347 349 351 350 353 354 355 356 354 356
120 49 105 259 247 217 226 216 254 266 281 260 268 283 294 308 308 305 316 314 316 324 336 340 342 346 347 346 346 348 353 356 354 354 346 355 353 352 356 358 354 2 354 1
189 249 326 263 220 204 209 206 217 263 285 290 297 305 309 312 310 308 312 319 321 332 339 340 340 343 346 346 346 351 356 358 354 351 351 352 354 353 353 355 356 358 358 2
180 215 202 174 185 210 227 250 223 262 274 276 277 291 294 292 283 308 324 326 334 340 342 344 339 343 343 350 353 354 358 355 354 352 349 354 355 355 354 352 354 347 356 359
192 244 301 218 192 189 194 279 242 249 273 275 304 297 301 290 320 335 330 344 353 358 348 346 346 344 343 351 352 355 356 354 354 352 349 352 356 355 354 348 348 345 347 357
179 243 225 200 184 157 137 272 217 216 264 276 329 315 333 15 358 11 47 34 7 356 352 353 352 347 345 350 351 353 352 350 350 356 354 352 351 355 352 346 342 337 343 346
209 252 273 214 153 150 187 226 209 216 251 260 268 285 315 338 35 74 53 32 10 4 5 3 354 351 351 346 347 346 344 346 354 357 360 2 355 349 349 355 348 354 359 358
170 217 261 161 136 192 205 196 223 223 248 252 260 294 311 48 69 64 39 24 20 8 6 1 357 352 348 350 341 340 344 351 353 357 3 4 355 356 350 0 2 9 3 5
199 221 211 178 183 205 185 207 207 216 245 227 264 277 31 69 82 54 36 24 21 3 352 357 357 355 346 345 339 337 340 347 353 358 3 358 353 355 360 1 3 2 6 3
187 226 214 204 220 214 206 229 214 229 217 186 213 143 111 111 70 32 18 13 2 358 357 350 352 355 349 339 335 339 343 348 354 356 357 359 358 358 360 4 3 0 3 5
243 264 258 235 225 233 235 231 233 206 190 181 156 137 133 118 68 21 360 359 355 354 353 347 343 346 346 343 343 343 347 352 351 352 353 359 6 357 359 2 358 7 5 359
218 211 192 211 212 224 221 223 200 171 153 145 151 145 139 125 122 44 332 340 342 346 347 343 342 344 347 349 351 353 353 353 350 350 355 359 356 355 6 1 350 3 5 2
225 189 201 160 185 196 211 197 178 173 162 153 142 143 139 147 173 173 218 313 331 336 339 342 345 349 352 353 357 2 357 351 355 356 355 355 356 1 358 359 359 12 3 2
201 153 210 211 229 205 193 164 152 146 148 150 148 145 142 161 179 212 231 269 297 313 343 347 349 355 355 358 3 359 353 5 354 353 354 353 356 354 355 359 359 2 3 5
209 201 187 161 185 161 147 149 154 159 154 153 160 162 171 189 214 218 214 242 264 226 331 338 350 356 359 3 2 356 0 4 358 351 352 351 353 355 358 1 1 356 357 7
200 193 202 218 199 175 161 166 166 169 169 168 175 185 195 204 209 206 225 231 255 266 278 308 329 347 349 357 355 354 4 2 0 356 353 356 360 1 355 358 357 0 1 1
164 198 201 212 196 188 193 187 183 174 176 182 190 184 188 198 221 233 234 226 247 252 249 273 290 308 347 357 343 345 349 354 1 0 2 358 357 1 358 355 355 356 356 357
204 189 184 186 189 188 191 185 177 176 186 191 181 183 192 206 235 243 220 218 270 247 254 258 262 285 292 355 346 334 336 342 350 356 359 0 359 1 360 359 355 353 352 354
190 183 183 187 191 190 180 178 182 185 180 181 181 201 207 221 232 231 201 222 261 269 276 212 295 311 306 342 350 336 338 344 340 341 352 360 6 4 5 2 358 357 356 356
175 169 169 179 171 178 179 179 175 184 187 186 192 198 217 231 223 213 205 243 249 247 205 213 334 347 342 344 352 350 349 347 347 344 338 349 359 360 359 1 360 357 0 1
181 177 175 173 172 172 174 173 179 193 193 192 201 217 223 229 214 196 210 249 229 183 193 202 322 329 331 338 345 356 356 353 353 351 347 344 350 353 355 358 360 359 357 356
164 168 168 162 164 171 176 174 188 191 194 209 221 226 220 227 220 216 226 230 162 173 180 188 312 340 323 333 10 14 11 10 3 356 356 356 349 349 350 353 354 354 354 353
162 161 158 166 174 180 175 195 204 209 218 223 227 226 225 231 208 212 237 211 202 191 185 179 171 195 158 61 3 353 360 5 2 358 352 349 345 344 345 345 346 347 348 349
155 162 167 160 158 173 206 219 217 221 230 240 240 233 223 223 228 219 193 166 174 171 183 179 189 197 205 235 298 318 329 358 3 358 351 346 347 344 346 344 344 344 343 344
162 158 159 166 185 211 219 206 204 211 225 239 244 232 221 219 220 188 187 185 174 173 176 186 199 208 222 250 284 308 277 12 7 352 351 352 349 347 345 346 343 342 339 340
173 180 186 193 203 200 199 189 215 217 213 247 259 232 209 193 190 180 167 171 170 170 181 188 189 196 208 211 282 156 140 40 6 1 353 347 346 345 341 340 339 340 338 335
181 175 181 197 209 201 194 197 198 214 213 222 241 206 183 180 184 188 168 161 166 173 186 185 186 192 188 200 180 168 178 161 17 355 348 341 339 338 336 334 333 332 332 332